| time (UTC) | temp F | wind direction | speed MPH | gust MPH | rain 1hr in | rain 24hr in | rain mn in | humidity % | barometer mb |
| 20260508094805 | 50 | 340 | 8.0 | 14.0 | 0.00 | 0.00 | 0.00 | 79 | 1011.8 |
| 20260508093305 | 50 | 6 | 12.0 | 18.0 | 0.00 | 0.00 | 0.00 | 78 | 1011.4 |
| 20260508091805 | 51 | 350 | 10.0 | 18.0 | 0.00 | 0.00 | 0.00 | 80 | 1011.2 |
| 20260508090805 | 51 | 8 | 10.0 | 20.0 | 0.00 | 0.00 | 0.00 | 80 | 1010.8 |
| 20260508090305 | 51 | 355 | 10.0 | 17.0 | 0.00 | 0.00 | 0.00 | 82 | 1010.7 |
| 20260508085307 | 51 | 351 | 10.0 | 17.0 | 0.00 | 0.00 | 0.00 | 84 | 1010.6 |
| 20260508084805 | 51 | 343 | 9.0 | 14.0 | 0.00 | 0.00 | 0.00 | 85 | 1010.5 |
| 20260508083305 | 51 | 343 | 10.0 | 17.0 | 0.00 | 0.00 | 0.00 | 87 | 1010.2 |
| 20260508082306 | 51 | 319 | 5.0 | 12.0 | 0.00 | 0.00 | 0.00 | 88 | 1010.0 |
| 20260508081805 | 51 | 291 | 5.0 | 12.0 | 0.00 | 0.00 | 0.00 | 88 | 1009.8 |
| 20260508075805 | 51 | 278 | 6.0 | 12.0 | 0.00 | 0.00 | 0.00 | 87 | 1009.3 |
| 20260508072307 | 51 | 270 | 6.0 | 10.0 | 0.00 | 0.01 | 0.00 | 87 | 1008.7 |
| 20260508071805 | 51 | 257 | 6.0 | 10.0 | 0.00 | 0.02 | 0.00 | 87 | 1008.7 |
| 20260508071304 | 51 | 265 | 7.0 | 12.0 | 0.00 | 0.07 | 0.00 | 86 | 1008.7 |
| 20260508070805 | 51 | 264 | 7.0 | 12.0 | 0.00 | 0.07 | 0.00 | 86 | 1008.7 |
| 20260508065805 | 51 | 262 | 10.0 | 15.0 | 0.00 | 0.08 | 0.00 | 86 | 1008.7 |
| 20260508064305 | 51 | 253 | 9.0 | 12.0 | 0.00 | 0.12 | 0.00 | 86 | 1008.6 |
| 20260508063804 | 51 | 258 | 9.0 | 14.0 | 0.00 | 0.14 | 0.00 | 87 | 1008.6 |
| 20260508063305 | 51 | 257 | 9.0 | 13.0 | 0.00 | 0.14 | 0.00 | 87 | 1008.6 |
| 20260508062805 | 51 | 255 | 7.0 | 12.0 | 0.00 | 0.14 | 0.00 | 87 | 1008.7 |
| 20260508062306 | 51 | 259 | 7.0 | 12.0 | 0.00 | 0.14 | 0.00 | 87 | 1008.7 |
| 20260508054804 | 52 | 254 | 10.0 | 13.0 | 0.00 | 0.14 | 0.00 | 86 | 1008.6 |
| 20260508053305 | 52 | 249 | 7.0 | 15.0 | 0.00 | 0.14 | 0.00 | 85 | 1008.6 |
| 20260508052805 | 52 | 259 | 9.0 | 13.0 | 0.00 | 0.14 | 0.00 | 85 | 1008.6 |
| 20260508052307 | 52 | 255 | 9.0 | 15.0 | 0.00 | 0.14 | 0.00 | 85 | 1008.7 |
| 20260508050806 | 53 | 251 | 7.0 | 14.0 | 0.00 | 0.14 | 0.00 | 86 | 1008.7 |
| 20260508050304 | 53 | 241 | 7.0 | 13.0 | 0.00 | 0.14 | 0.00 | 86 | 1008.7 |
| 20260508045805 | 53 | 248 | 9.0 | 16.0 | 0.00 | 0.14 | 0.00 | 86 | 1008.7 |
| 20260508044805 | 53 | 237 | 7.0 | 14.0 | 0.00 | 0.14 | 0.00 | 86 | 1008.7 |
| 20260508044305 | 53 | 242 | 9.0 | 14.0 | 0.00 | 0.14 | 0.00 | 86 | 1008.7 |
| 20260508043305 | 53 | 248 | 9.0 | 15.0 | 0.00 | 0.14 | 0.00 | 86 | 1008.6 |
| 20260508040305 | 54 | 237 | 8.0 | 13.0 | 0.00 | 0.14 | 0.00 | 87 | 1008.7 |
| 20260508034805 | 53 | 234 | 8.0 | 12.0 | 0.00 | 0.14 | 0.14 | 92 | 1008.8 |
| 20260508033804 | 52 | 190 | 5.0 | 9.0 | 0.00 | 0.14 | 0.14 | 92 | 1008.7 |
| 20260508033304 | 52 | 204 | 5.0 | 10.0 | 0.00 | 0.14 | 0.14 | 92 | 1008.8 |
| 20260508032306 | 52 | 195 | 5.0 | 10.0 | 0.00 | 0.14 | 0.14 | 92 | 1009.0 |
| 20260508030805 | 51 | 187 | 6.0 | 10.0 | 0.00 | 0.14 | 0.14 | 91 | 1008.8 |
| 20260508025306 | 51 | 178 | 3.0 | 5.0 | 0.00 | 0.14 | 0.14 | 90 | 1008.9 |
| 20260508023805 | 52 | 190 | 3.0 | 8.0 | 0.00 | 0.14 | 0.14 | 90 | 1008.9 |
| 20260508021805 | 51 | 194 | 5.0 | 10.0 | 0.00 | 0.14 | 0.14 | 90 | 1009.1 |
| 20260508021305 | 51 | 194 | 6.0 | 12.0 | 0.00 | 0.14 | 0.14 | 89 | 1009.0 |
| 20260508015804 | 51 | 196 | 5.0 | 12.0 | 0.00 | 0.14 | 0.14 | 89 | 1008.9 |
| 20260508015306 | 51 | 190 | 4.0 | 7.0 | 0.00 | 0.14 | 0.14 | 89 | 1008.8 |
| 20260508012804 | 52 | 186 | 6.0 | 12.0 | 0.00 | 0.14 | 0.14 | 88 | 1008.6 |
| 20260508011804 | 51 | 191 | 6.0 | 12.0 | 0.00 | 0.14 | 0.14 | 88 | 1008.6 |
| 20260508010804 | 51 | 196 | 6.0 | 12.0 | 0.00 | 0.14 | 0.14 | 88 | 1008.4 |
| 20260508004304 | 52 | 190 | 8.0 | 13.0 | 0.00 | 0.14 | 0.14 | 88 | 1008.5 |
| 20260508002306 | 52 | 201 | 6.0 | 10.0 | 0.00 | 0.14 | 0.14 | 81 | 1008.1 |
| 20260508000804 | 52 | 188 | 5.0 | 12.0 | 0.00 | 0.14 | 0.14 | 76 | 1008.2 |
| 20260508000305 | 52 | 200 | 7.0 | 12.0 | 0.00 | 0.14 | 0.14 | 74 | 1008.2 |
| 20260507235804 | 52 | 195 | 6.0 | 9.0 | 0.00 | 0.14 | 0.14 | 76 | 1008.4 |
| 20260507235307 | 52 | 200 | 6.0 | 10.0 | 0.00 | 0.14 | 0.14 | 77 | 1008.4 |
| 20260507234804 | 52 | 197 | 6.0 | 10.0 | 0.00 | 0.14 | 0.14 | 79 | 1008.4 |
| 20260507233804 | 52 | 188 | 6.0 | 12.0 | 0.00 | 0.14 | 0.14 | 80 | 1008.2 |
| 20260507233304 | 52 | 185 | 6.0 | 10.0 | 0.00 | 0.14 | 0.14 | 81 | 1008.0 |
| 20260507232804 | 53 | 195 | 5.0 | 9.0 | 0.00 | 0.14 | 0.14 | 81 | 1007.8 |
| 20260507232306 | 53 | 190 | 6.0 | 9.0 | 0.00 | 0.14 | 0.14 | 81 | 1007.9 |
| 20260507231804 | 53 | 190 | 5.0 | 9.0 | 0.00 | 0.14 | 0.14 | 80 | 1007.9 |
| 20260507225306 | 54 | 194 | 5.0 | 13.0 | 0.00 | 0.14 | 0.14 | 80 | 1007.7 |
| 20260507224804 | 54 | 200 | 7.0 | 12.0 | 0.00 | 0.14 | 0.14 | 81 | 1007.7 |
| 20260507223804 | 54 | 180 | 5.0 | 10.0 | 0.00 | 0.14 | 0.14 | 81 | 1007.9 |
| 20260507222804 | 54 | 187 | 9.0 | 13.0 | 0.00 | 0.14 | 0.14 | 81 | 1007.8 |
| 20260507221804 | 54 | 197 | 7.0 | 15.0 | 0.00 | 0.14 | 0.14 | 80 | 1008.4 |
| 20260507221304 | 54 | 188 | 8.0 | 13.0 | 0.00 | 0.14 | 0.14 | 80 | 1008.2 |
| 20260507220304 | 55 | 182 | 5.0 | 12.0 | 0.00 | 0.14 | 0.14 | 81 | 1008.1 |
| 20260507215804 | 55 | 185 | 5.0 | 10.0 | 0.00 | 0.14 | 0.14 | 82 | 1008.0 |
| 20260507215307 | 54 | 177 | 6.0 | 7.0 | 0.00 | 0.14 | 0.14 | 83 | 1007.9 |
| 20260507214807 | 54 | 181 | 5.0 | 9.0 | 0.00 | 0.14 | 0.14 | 83 | 1007.8 |
| 20260507213307 | 55 | 188 | 6.0 | 10.0 | 0.00 | 0.14 | 0.14 | 83 | 1008.1 |
| 20260507211307 | 55 | 189 | 6.0 | 12.0 | 0.00 | 0.14 | 0.14 | 83 | 1007.8 |
| 20260507210307 | 56 | 180 | 5.0 | 8.0 | 0.00 | 0.14 | 0.14 | 82 | 1007.5 |
| 20260507204807 | 55 | 179 | 5.0 | 12.0 | 0.00 | 0.14 | 0.14 | 83 | 1007.5 |
| 20260507204307 | 55 | 183 | 5.0 | 12.0 | 0.00 | 0.14 | 0.14 | 83 | 1007.7 |
| 20260507203807 | 55 | 180 | 5.0 | 10.0 | 0.00 | 0.14 | 0.14 | 83 | 1007.6 |
| 20260507202807 | 54 | 161 | 5.0 | 10.0 | 0.00 | 0.14 | 0.14 | 84 | 1007.5 |
| 20260507201807 | 54 | 151 | 6.0 | 10.0 | 0.00 | 0.14 | 0.14 | 84 | 1007.3 |
| 20260507201307 | 54 | 147 | 6.0 | 10.0 | 0.00 | 0.14 | 0.14 | 83 | 1007.4 |
| 20260507200807 | 54 | 156 | 6.0 | 9.0 | 0.00 | 0.14 | 0.14 | 84 | 1007.6 |
| 20260507200307 | 54 | 153 | 5.0 | 9.0 | 0.00 | 0.14 | 0.14 | 84 | 1007.4 |
| 20260507195307 | 53 | 151 | 6.0 | 9.0 | 0.00 | 0.14 | 0.14 | 83 | 1007.4 |
| 20260507194307 | 54 | 155 | 5.0 | 8.0 | 0.00 | 0.14 | 0.14 | 82 | 1007.7 |
| 20260507193807 | 54 | 161 | 5.0 | 9.0 | 0.00 | 0.14 | 0.14 | 81 | 1007.7 |
| 20260507192807 | 55 | 157 | 5.0 | 9.0 | 0.00 | 0.14 | 0.14 | 80 | 1008.2 |
| 20260507192307 | 55 | 179 | 4.0 | 9.0 | 0.00 | 0.14 | 0.14 | 80 | 1008.3 |
| 20260507190807 | 55 | 159 | 6.0 | 9.0 | 0.00 | 0.14 | 0.14 | 78 | 1008.1 |
| 20260507190307 | 56 | 156 | 6.0 | 9.0 | 0.00 | 0.14 | 0.14 | 76 | 1008.0 |
| 20260507185307 | 59 | 127 | 1.0 | 5.0 | 0.00 | 0.14 | 0.14 | 76 | 1007.8 |
| 20260507184807 | 58 | 156 | 2.0 | 5.0 | 0.00 | 0.14 | 0.14 | 78 | 1007.9 |
| 20260507183306 | 57 | 149 | 3.0 | 6.0 | 0.00 | 0.14 | 0.14 | 77 | 1008.7 |
| 20260507182807 | 56 | 142 | 6.0 | 8.0 | 0.00 | 0.14 | 0.14 | 75 | 1008.6 |
| 20260507182307 | 59 | 148 | 5.0 | 6.0 | 0.00 | 0.14 | 0.14 | 71 | 1008.6 |
| 20260507181807 | 60 | 148 | 2.0 | 3.0 | 0.00 | 0.14 | 0.14 | 70 | 1008.5 |
| 20260507180807 | 61 | 117 | 1.0 | 3.0 | 0.00 | 0.14 | 0.14 | 67 | 1008.7 |
| 20260507175807 | 61 | 108 | 1.0 | 5.0 | 0.00 | 0.14 | 0.14 | 67 | 1008.6 |
| 20260507174806 | 61 | 160 | 2.0 | 3.0 | 0.00 | 0.14 | 0.14 | 67 | 1008.5 |
| 20260507174307 | 62 | 127 | 2.0 | 3.0 | 0.00 | 0.14 | 0.14 | 65 | 1008.4 |
| 20260507173807 | 62 | 102 | 2.0 | 3.0 | 0.00 | 0.14 | 0.14 | 65 | 1008.5 |
| 20260507170309 | 60 | 141 | 1.0 | 2.0 | 0.00 | 0.14 | 0.14 | 72 | 1009.2 |
| 20260507165807 | 59 | 133 | 2.0 | 3.0 | 0.00 | 0.14 | 0.14 | 72 | 1009.4 |
| 20260507164807 | 59 | 113 | 2.0 | 3.0 | 0.00 | 0.14 | 0.14 | 72 | 1009.5 |
| 20260507161806 | 57 | 20 | 3.0 | 7.0 | 0.00 | 0.14 | 0.14 | 65 | 1009.8 |
| 20260507160806 | 57 | 1 | 3.0 | 7.0 | 0.00 | 0.14 | 0.14 | 67 | 1010.0 |
| 20260507160307 | 57 | 334 | 3.0 | 6.0 | 0.00 | 0.14 | 0.14 | 68 | 1010.0 |
| 20260507155806 | 56 | 336 | 3.0 | 6.0 | 0.00 | 0.14 | 0.14 | 69 | 1010.0 |
| 20260507154307 | 56 | 358 | 4.0 | 7.0 | 0.00 | 0.14 | 0.14 | 71 | 1010.2 |
| 20260507153807 | 55 | 346 | 7.0 | 12.0 | 0.00 | 0.14 | 0.14 | 71 | 1010.1 |
| 20260507152307 | 55 | 354 | 6.0 | 10.0 | 0.00 | 0.14 | 0.14 | 74 | 1010.2 |
| 20260507151807 | 55 | 356 | 5.0 | 9.0 | 0.00 | 0.14 | 0.14 | 76 | 1010.5 |
| 20260507151306 | 55 | 334 | 5.0 | 8.0 | 0.00 | 0.14 | 0.14 | 76 | 1010.6 |
| 20260507150807 | 55 | 330 | 5.0 | 8.0 | 0.00 | 0.14 | 0.14 | 77 | 1010.5 |
| 20260507150306 | 55 | 307 | 3.0 | 7.0 | 0.00 | 0.14 | 0.14 | 77 | 1010.7 |
| 20260507145307 | 55 | 329 | 3.0 | 9.0 | 0.00 | 0.14 | 0.14 | 78 | 1010.6 |
| 20260507142807 | 54 | 3 | 7.0 | 13.0 | 0.00 | 0.14 | 0.14 | 81 | 1010.7 |
| 20260507142307 | 54 | 329 | 5.0 | 10.0 | 0.00 | 0.14 | 0.14 | 81 | 1010.6 |
| 20260507140806 | 53 | 338 | 6.0 | 12.0 | 0.00 | 0.14 | 0.14 | 82 | 1010.5 |
| 20260507140306 | 53 | 0 | 7.0 | 12.0 | 0.00 | 0.14 | 0.14 | 82 | 1010.6 |
| 20260507134806 | 53 | 344 | 4.0 | 10.0 | 0.00 | 0.14 | 0.14 | 83 | 1010.5 |
| 20260507134307 | 53 | 339 | 5.0 | 12.0 | 0.00 | 0.14 | 0.14 | 84 | 1010.6 |
| 20260507133307 | 53 | 336 | 5.0 | 10.0 | 0.00 | 0.14 | 0.14 | 84 | 1010.6 |
| 20260507132807 | 53 | 351 | 6.0 | 12.0 | 0.00 | 0.14 | 0.14 | 84 | 1010.6 |
| 20260507132307 | 53 | 322 | 5.0 | 12.0 | 0.00 | 0.14 | 0.14 | 84 | 1010.6 |
| 20260507131306 | 53 | 355 | 8.0 | 14.0 | 0.00 | 0.14 | 0.14 | 84 | 1010.4 |
| 20260507125806 | 53 | 350 | 6.0 | 13.0 | 0.00 | 0.14 | 0.14 | 85 | 1010.5 |
| 20260507124306 | 52 | 339 | 6.0 | 12.0 | 0.00 | 0.14 | 0.14 | 85 | 1010.6 |
| 20260507123806 | 52 | 339 | 6.0 | 12.0 | 0.00 | 0.14 | 0.14 | 85 | 1010.3 |
| 20260507122307 | 52 | 340 | 7.0 | 12.0 | 0.00 | 0.14 | 0.14 | 85 | 1010.4 |
| 20260507121306 | 52 | 0 | 4.0 | 8.0 | 0.00 | 0.14 | 0.14 | 86 | 1010.4 |
| 20260507115806 | 52 | 323 | 4.0 | 9.0 | 0.00 | 0.14 | 0.14 | 85 | 1010.7 |
| 20260507114308 | 52 | 2 | 6.0 | 10.0 | 0.00 | 0.14 | 0.14 | 85 | 1010.3 |
| 20260507113806 | 52 | 3 | 3.0 | 7.0 | 0.00 | 0.14 | 0.14 | 86 | 1010.2 |
| 20260507112308 | 52 | 355 | 5.0 | 9.0 | 0.00 | 0.14 | 0.14 | 86 | 1010.0 |
| 20260507110806 | 52 | 333 | 7.0 | 13.0 | 0.00 | 0.14 | 0.14 | 87 | 1010.0 |
| 20260507110307 | 52 | 331 | 6.0 | 15.0 | 0.00 | 0.14 | 0.14 | 87 | 1009.9 |
| 20260507105807 | 52 | 355 | 9.0 | 15.0 | 0.00 | 0.14 | 0.14 | 87 | 1009.9 |
| 20260507105307 | 52 | 351 | 6.0 | 14.0 | 0.00 | 0.14 | 0.14 | 88 | 1009.9 |
| 20260507104807 | 52 | 330 | 5.0 | 10.0 | 0.00 | 0.14 | 0.14 | 88 | 1009.9 |
| 20260507104308 | 52 | 4 | 6.0 | 12.0 | 0.00 | 0.14 | 0.14 | 87 | 1009.9 |
| 20260507102806 | 52 | 315 | 7.0 | 12.0 | 0.00 | 0.14 | 0.14 | 88 | 1009.7 |
| 20260507102307 | 52 | 343 | 6.0 | 12.0 | 0.00 | 0.14 | 0.14 | 88 | 1009.5 |
| 20260507101806 | 52 | 337 | 6.0 | 12.0 | 0.00 | 0.14 | 0.14 | 88 | 1009.3 |
| 20260507100307 | 52 | 341 | 5.0 | 12.0 | 0.00 | 0.14 | 0.14 | 89 | 1009.3 |
| 20260507095306 | 52 | 350 | 6.0 | 13.0 | 0.00 | 0.14 | 0.14 | 89 | 1009.0 |